Карточка аэропорта UHPP

Внимание!
Информация на этой странице в стадии наполнения.
Если вы не увидели какой-то информации, или заметили неточность - пожалуйста сообщите нам!
Спасибо!
Команда RU-STAFF
Название аэропортаЕлизово
Название аэропорта (англ.)Yelizovo
Превышение131 ft. (39.9 m.)
Координаты53°10.2', 158°27.6'
Высота перехода2400m
Эшелон переходаQFE > 759 mmHg - FL090; 729 mmHg < QFE < 759 mmHg - FL100; QFE < 729 mmHg - FL110
Коды ответчика6630-6657
Зона ОрВДМагадан РПИ (UHMM)
Данные METARUHPP 190230Z 15006MPS 9999 -SHRA SCT011 BKN020CB 05/03 Q1000 R16R/290160 NOSIG RMK MT OBSC QFE747/0996
Проноз погоды (TAF)UHPP 190133Z 1903/2009 17005G12MPS 6000 -SHRA BKN010 OVC025CB TEMPO 1903/1909 1500 SHRA BR BKN003 OVC015CB TEMPO 1909/1920 0700 -SHRA FG VV002
NOTAMshow/hide NOTAM
AWOS   TABLE

Информация о ВПП

ВПП Длина ВПП (м.) Покрытие Курс ВПП Частота ILS
34L2500Бетон344108.7
16R2500Бетон164109.9

Диспетчерские позиции

Позывной Наименование органа УВД Частота
UHPP_ATISПетропавловск - АТИС126.800
UHPP_R_APPПетропавловск - Круг119.400
UHPP_GNDПетропавловск - Руление127.000
UHPP_TWRПетропавловск - Старт118.100



Спутниковое изображение